FW3881 Weather Reports


time (UTC)temp
F
wind
direction
speed
knots
gust
knots
rain 1hr
in
rain 24hr
in
rain mn
in
humidity
%
barometer
mb
20260506002622 68 240 0.9 5.2 0.00 0.00 0.00 46 1011.0
20260506001835 68 147 0.9 5.2 0.00 0.00 0.00 46 1011.2
20260506001333 68 235 0.9 3.5 0.00 0.00 0.00 46 1010.9
20260506000823 68 201 0.9 5.2 0.00 0.00 0.00 46 1010.9
20260506000543 68 198 0.9 5.2 0.00 0.00 0.00 45 1010.8
20260505235824 69 219 0.9 2.6 0.00 0.00 0.00 46 1010.8
20260505235318 69 229 0.9 2.6 0.00 0.00 0.00 44 1010.8
20260505234754 70 141 0.9 7.0 0.00 0.00 0.00 44 1010.7
20260505234229 70 269 0.9 7.0 0.00 0.00 0.00 44 1010.7
20260505233659 70 194 0.9 7.0 0.00 0.00 0.00 43 1010.8
20260505233159 70 220 0.9 10.4 0.00 0.00 0.00 43 1010.8
20260505232633 71 244 0.9 7.0 0.00 0.00 0.00 43 1010.8
20260505232105 71 246 1.7 7.0 0.00 0.00 0.00 42 1010.8
20260505231603 71 198 1.7 7.0 0.00 0.00 0.00 41 1010.8
20260505231038 71 190 1.7 6.1 0.00 0.00 0.00 41 1010.8
20260505230509 72 200 1.7 7.8 0.00 0.00 0.00 40 1010.7
20260505230005 72 102 2.6 7.8 0.00 0.00 0.00 41 1010.5
20260505225440 72 166 1.7 5.2 0.00 0.00 0.00 42 1010.7
20260505224934 72 198 1.7 5.2 0.00 0.00 0.00 40 1010.7
20260505224435 72 200 1.7 3.5 0.00 0.00 0.00 43 1010.8
20260505223905 72 142 1.7 8.7 0.00 0.00 0.00 41 1010.9
20260505223624 72 246 0.9 8.7 0.00 0.00 0.00 42 1010.7
20260505222838 72 192 0.9 4.3 0.00 0.00 0.00 42 1010.9
20260505222309 72 246 0.9 4.3 0.00 0.00 0.00 43 1010.9
20260505221805 72 233 1.7 3.5 0.00 0.00 0.00 42 1010.8
20260505221526 73 245 1.7 7.8 0.00 0.00 0.00 41 1010.7
20260505220755 73 183 1.7 7.8 0.00 0.00 0.00 42 1010.9
20260505220248 73 222 1.7 5.2 0.00 0.00 0.00 40 1010.9
20260505215751 73 191 0.9 5.2 0.00 0.00 0.00 43 1010.9
20260505215220 73 187 0.9 5.2 0.00 0.00 0.00 41 1010.9
20260505214716 73 247 1.7 7.8 0.00 0.00 0.00 43 1010.8
20260505214408 73 158 1.7 7.8 0.00 0.00 0.00 41 1010.9
20260505213619 73 179 1.7 6.1 0.00 0.00 0.00 42 1010.8
20260505213050 73 181 2.6 11.3 0.00 0.00 0.00 42 1010.7
20260505212555 74 204 2.6 11.3 0.00 0.00 0.00 42 1010.7
20260505212024 74 185 2.6 6.1 0.00 0.00 0.00 42 1010.7
20260505211457 74 202 2.6 5.2 0.00 0.00 0.00 41 1010.7
20260505211200 75 235 1.7 7.0 0.00 0.00 0.00 43 1010.5
20260505210440 75 244 2.6 7.0 0.00 0.00 0.00 44 1010.5
20260505205942 75 174 2.6 7.0 0.00 0.00 0.00 44 1010.5
20260505205438 76 177 2.6 6.1 0.00 0.00 0.00 42 1010.7
20260505205207 76 108 2.6 7.8 0.00 0.00 0.00 42 1010.4
20260505204432 76 231 2.6 7.8 0.00 0.00 0.00 43 1010.3
20260505203905 76 214 1.7 4.3 0.00 0.00 0.00 41 1010.5
20260505203403 77 179 1.7 3.5 0.00 0.00 0.00 42 1010.4
20260505202838 78 169 1.7 7.8 0.00 0.00 0.00 41 1010.3
20260505202332 77 196 1.7 7.8 0.00 0.00 0.00 42 1010.4
20260505202055 76 208 2.6 7.8 0.00 0.00 0.00 42 1010.5
20260505201304 76 164 2.6 7.8 0.00 0.00 0.00 41 1010.4
20260505200740 77 217 2.6 7.8 0.00 0.00 0.00 43 1010.5
20260505200212 78 208 1.7 7.8 0.00 0.00 0.00 43 1010.7
20260505195706 77 198 1.7 6.1 0.00 0.00 0.00 44 1010.5
20260505195204 77 230 1.7 4.3 0.00 0.00 0.00 45 1010.8
20260505194703 78 228 1.7 6.1 0.00 0.00 0.00 43 1010.9
20260505194140 77 202 1.7 6.1 0.00 0.00 0.00 44 1010.8
20260505193640 77 168 1.7 9.6 0.00 0.00 0.00 41 1010.9
20260505193141 77 219 1.7 9.6 0.00 0.00 0.00 44 1011.0
20260505192639 77 258 2.6 7.0 0.00 0.00 0.00 44 1011.0
20260505192137 77 220 2.6 7.8 0.00 0.00 0.00 44 1011.0
20260505191609 77 189 1.7 7.8 0.00 0.00 0.00 41 1011.2
20260505191105 77 159 2.6 7.8 0.00 0.00 0.00 41 1011.2
20260505190823 77 166 2.6 7.0 0.00 0.00 0.00 42 1011.1
20260505190329 77 203 2.6 7.8 0.00 0.00 0.00 42 1011.2
20260505185755 76 293 2.6 7.8 0.00 0.00 0.00 41 1011.4
20260505185031 76 164 2.6 7.8 0.00 0.00 0.00 43 1011.3
20260505184502 77 231 2.6 7.8 0.00 0.00 0.00 41 1011.5
20260505184002 77 144 1.7 7.8 0.00 0.00 0.00 41 1011.4
20260505183436 78 121 1.7 6.1 0.00 0.00 0.00 41 1011.5
20260505182915 77 192 1.7 5.2 0.00 0.00 0.00 43 1011.6
20260505182344 77 196 1.7 7.0 0.00 0.00 0.00 43 1011.6
20260505181814 77 223 1.7 7.0 0.00 0.00 0.00 42 1011.6
20260505181313 78 198 1.7 4.3 0.00 0.00 0.00 42 1011.7
20260505180755 77 167 1.7 4.3 0.00 0.00 0.00 41 1011.8
20260505180252 78 193 1.7 7.0 0.00 0.00 0.00 45 1011.8
20260505175755 77 209 1.7 7.8 0.00 0.00 0.00 44 1011.8
20260505175238 77 245 1.7 7.8 0.00 0.00 0.00 47 1011.8
20260505174737 77 206 2.6 9.6 0.00 0.00 0.00 42 1011.7
20260505174207 77 244 1.7 9.6 0.00 0.00 0.00 43 1012.0
20260505173705 76 190 2.6 8.7 0.00 0.00 0.00 44 1012.1
20260505173200 76 219 2.6 8.7 0.00 0.00 0.00 45 1012.1
20260505172635 76 242 1.7 7.0 0.00 0.00 0.00 45 1012.0
20260505172135 76 221 2.6 7.0 0.00 0.00 0.00 44 1012.0
20260505171607 76 235 2.6 7.0 0.00 0.00 0.00 44 1012.1
20260505171058 76 230 2.6 7.0 0.00 0.00 0.00 44 1012.2
20260505170558 76 260 2.6 7.8 0.00 0.00 0.00 46 1012.2
20260505170542 75 248 2.6 7.8 0.00 0.00 0.00 43 1012.2
20260505165555 75 203 2.6 6.1 0.00 0.00 0.00 43 1012.3
20260505165317 75 179 1.7 6.1 0.00 0.00 0.00 44 1012.5
20260505164534 76 223 1.7 10.4 0.00 0.00 0.00 43 1012.4
20260505164007 76 208 2.6 10.4 0.00 0.00 0.00 46 1012.7
20260505163441 76 5 2.6 9.6 0.00 0.00 0.00 44 1012.7
20260505162941 75 269 2.6 7.8 0.00 0.00 0.00 45 1012.9
20260505162443 75 162 2.6 7.8 0.00 0.00 0.00 43 1012.9
20260505161941 75 219 2.6 7.8 0.00 0.00 0.00 45 1012.9
20260505161412 75 225 1.7 5.2 0.00 0.00 0.00 45 1012.9
20260505160847 75 149 1.7 3.5 0.00 0.00 0.00 46 1013.1
20260505160322 74 225 1.7 6.1 0.00 0.00 0.00 46 1013.0
20260505153235 74 147 2.6 7.0 0.00 0.00 0.00 46 1013.2
20260505152733 74 190 1.7 6.1 0.00 0.00 0.00 47 1013.2
20260505152233 73 137 1.7 6.1 0.00 0.00 0.00 46 1013.2
20260505151732 73 218 0.9 4.3 0.00 0.00 0.00 50 1013.2
20260505151434 73 246 1.7 7.0 0.00 0.00 0.00 52 1013.2
20260505150648 72 173 1.7 7.0 0.00 0.00 0.00 53 1013.2
20260505150118 72 102 1.7 5.2 0.00 0.00 0.00 54 1013.2
20260505140206 68 198 1.7 4.3 0.00 0.00 0.00 58 1013.1
20260505130214 64 223 0.9 7.0 0.00 0.00 0.00 62 1013.3
20260505124626 63 229 0.9 4.3 0.00 0.00 0.00 64 1013.4
20260505124127 62 84 0.0 2.6 0.00 0.00 0.00 68 1013.3
20260505123557 62 323 0.0 2.6 0.00 0.00 0.00 69 1013.4
20260505123055 61 51 0.0 1.7 0.00 0.00 0.00 68 1013.5
20260505122819 61 98 0.0 1.7 0.00 0.00 0.00 69 1013.4
20260505122054 60 92 0.0 2.6 0.00 0.00 0.00 70 1013.4
20260505121554 60 269 0.0 2.6 0.00 0.00 0.00 70 1013.5
20260505121043 60 272 0.9 3.5 0.00 0.00 0.00 71 1013.4
20260505120514 59 305 0.9 3.5 0.00 0.00 0.00 73 1013.4
20260505120012 59 72 0.9 2.6 0.00 0.00 0.00 72 1013.4
20260505115708 58 259 0.9 2.6 0.00 0.00 0.00 72 1013.4
20260505114944 58 212 0.9 4.3 0.00 0.00 0.00 73 1013.3
20260505114441 57 208 0.9 4.3 0.00 0.00 0.00 74 1013.2
20260505113938 57 245 0.0 3.5 0.00 0.00 0.00 74 1013.1
20260505113409 56 171 0.0 1.7 0.00 0.00 0.00 76 1013.1
20260505113132 56 158 0.0 1.7 0.00 0.00 0.00 77 1013.0
20260505112342 56 158 0.0 1.7 0.00 0.00 0.00 77 1013.0
20260505111813 55 158 0.0 1.7 0.00 0.00 0.00 78 1012.9
20260505111310 55 300 0.0 1.7 0.00 0.00 0.00 78 1012.8
20260505110746 55 61 0.0 3.5 0.00 0.00 0.00 79 1012.7
20260505110220 55 10 0.0 3.5 0.00 0.00 0.00 78 1012.7
20260505101943 53 248 0.0 0.0 0.00 0.00 0.00 80 1012.2
20260505101431 53 248 0.0 0.0 0.00 0.00 0.00 80 1012.2
20260505101123 53 248 0.0 0.0 0.00 0.00 0.00 80 1012.1
20260505100400 53 248 0.0 0.0 0.00 0.00 0.00 80 1012.0
20260505095831 53 249 0.0 0.0 0.00 0.00 0.00 80 1012.1
20260505095328 53 249 0.0 0.0 0.00 0.00 0.00 80 1012.2
20260505094804 54 249 0.0 0.0 0.00 0.00 0.00 79 1012.2
20260505094459 54 249 0.0 0.0 0.00 0.00 0.00 79 1012.1
20260505093730 54 249 0.0 0.0 0.00 0.00 0.00 78 1012.1
20260505093228 55 249 0.0 3.5 0.00 0.00 0.00 78 1012.1
20260505092947 55 248 0.0 3.5 0.00 0.00 0.00 77 1012.1
20260505092442 55 250 0.0 1.7 0.00 0.00 0.00 77 1012.1
20260505091655 55 250 0.9 4.3 0.00 0.00 0.00 76 1012.1
20260505091417 56 250 0.9 4.3 0.00 0.00 0.00 76 1012.1
20260505090906 55 184 0.9 2.6 0.00 0.00 0.00 76 1012.0
20260505090117 55 264 0.9 2.6 0.00 0.00 0.00 77 1012.0
20260505085615 55 246 0.0 2.6 0.00 0.00 0.00 77 1012.0
20260505085054 55 32 0.0 1.7 0.00 0.00 0.00 78 1012.0
20260505084547 55 183 0.0 1.7 0.00 0.00 0.00 78 1012.0
20260505084017 55 111 0.0 1.7 0.00 0.00 0.00 78 1011.9
20260505083736 55 108 0.0 1.7 0.00 0.00 0.00 77 1011.8
20260505083014 55 100 0.0 1.7 0.00 0.00 0.00 78 1011.9
20260505082742 55 126 0.0 1.7 0.00 0.00 0.00 77 1011.8
20260505081950 55 199 0.0 1.7 0.00 0.00 0.00 77 1011.8
20260505081446 55 252 0.0 1.7 0.00 0.00 0.00 77 1011.9
20260505080949 56 264 0.0 3.5 0.00 0.00 0.00 77 1011.8
20260505080446 56 264 0.0 3.5 0.00 0.00 0.00 77 1011.9
20260505075950 56 247 0.9 5.2 0.00 0.00 0.00 76 1011.9
20260505075417 56 247 0.9 5.2 0.00 0.00 0.00 76 1011.9
20260505074911 56 198 0.0 1.7 0.00 0.00 0.00 77 1011.8
20260505074346 55 229 0.0 0.9 0.00 0.00 0.00 77 1011.8
20260505073817 55 229 0.0 7.0 0.00 0.00 0.00 77 1011.8
20260505073254 55 230 0.0 7.0 0.00 0.00 0.00 77 1011.7
20260505072726 55 109 0.0 0.9 0.00 0.00 0.00 78 1011.7
20260505072200 55 99 0.0 0.9 0.00 0.00 0.00 77 1011.6
20260505071634 55 204 0.0 0.0 0.00 0.00 0.00 77 1011.7
20260505071338 55 204 0.0 0.0 0.00 0.00 0.00 77 1011.6
20260505070539 56 204 0.0 0.0 0.00 0.00 0.00 77 1011.6
20260505070039 56 171 0.0 0.0 0.00 0.00 0.00 76 1011.6
20260505065512 56 172 0.0 1.7 0.00 0.00 0.00 76 1011.6
20260505064944 56 5 0.0 1.7 0.00 0.00 0.00 75 1011.7
20260505064415 56 220 0.0 0.0 0.00 0.00 0.00 75 1011.7
20260505063914 56 220 0.0 0.0 0.00 0.00 0.00 74 1011.7
20260505063345 56 220 0.0 0.0 0.00 0.00 0.00 74 1011.8
20260505062845 56 217 0.0 0.0 0.00 0.00 0.00 74 1011.8
20260505062335 56 217 0.0 0.0 0.00 0.00 0.00 74 1011.8
20260505061839 56 217 0.0 0.0 0.00 0.00 0.00 74 1011.8
20260505061322 56 217 0.0 0.0 0.00 0.00 0.00 73 1011.9
20260505060829 56 217 0.0 0.0 0.00 0.00 0.00 74 1011.9
20260505060257 56 217 0.0 0.0 0.00 0.00 0.00 74 1012.0
20260505060018 56 217 0.0 0.0 0.00 0.00 0.00 75 1012.0
20260505055227 56 217 0.0 0.0 0.00 0.00 0.00 75 1011.9
20260505054655 56 217 0.0 0.0 0.00 0.00 0.00 75 1011.9
20260505054132 56 217 0.0 0.0 0.00 0.00 0.00 75 1011.9
20260505053826 56 217 0.0 0.0 0.00 0.00 0.00 76 1012.0
20260505053103 55 217 0.0 1.7 0.00 0.00 0.00 76 1012.0
20260505052536 56 217 0.0 1.7 0.00 0.00 0.00 76 1011.9
20260505052007 56 318 0.0 0.0 0.00 0.00 0.00 77 1011.9
20260505051504 56 318 0.0 0.0 0.00 0.00 0.00 76 1012.0
20260505050937 56 307 0.0 0.0 0.00 0.00 0.00 75 1012.1
20260505050415 56 307 0.0 0.0 0.00 0.00 0.00 74 1011.9
20260505041147 58 183 0.0 0.0 0.00 0.00 0.00 72 1011.9
20260505040650 58 183 0.0 0.0 0.00 0.00 0.00 72 1011.8
20260505040119 58 183 0.0 0.9 0.00 0.00 0.00 72 1011.8
20260505035840 58 183 0.0 2.6 0.00 0.00 0.00 72 1011.8
20260505035118 58 178 0.0 2.6 0.00 0.00 0.00 72 1011.8
20260505034814 58 183 0.0 1.7 0.00 0.00 0.00 71 1011.8
20260505034053 58 173 0.0 1.7 0.00 0.00 0.00 71 1011.7
20260505033553 58 163 0.0 1.7 0.00 0.00 0.00 71 1011.7
20260505033051 58 300 0.0 4.3 0.00 0.00 0.00 70 1011.7
20260505032553 59 179 0.0 4.3 0.00 0.00 0.00 70 1011.8
20260505032028 59 148 0.0 5.2 0.00 0.00 0.00 69 1011.8
20260505031505 59 211 0.0 5.2 0.00 0.00 0.00 69 1011.9
20260505031000 59 67 0.0 5.2 0.00 0.00 0.00 69 1011.9
20260505030500 59 194 0.0 5.2 0.00 0.00 0.00 68 1011.9
20260505030217 59 108 0.0 1.7 0.00 0.00 0.00 69 1011.9
20260505025430 59 68 0.9 4.3 0.00 0.00 0.00 68 1012.0
20260505024928 59 234 0.0 4.3 0.00 0.00 0.00 68 1012.0
20260505024423 59 312 0.0 1.7 0.00 0.00 0.00 68 1012.0
20260505023919 59 229 0.0 1.7 0.00 0.00 0.00 68 1011.9
20260505023420 59 196 0.0 1.7 0.00 0.00 0.00 69 1012.0
20260505022912 59 258 0.0 1.7 0.00 0.00 0.00 68 1012.0
20260505022409 60 258 0.0 2.6 0.00 0.00 0.00 67 1011.9
20260505021842 60 258 0.0 2.6 0.00 0.00 0.00 67 1011.8
20260505021336 60 204 0.0 3.5 0.00 0.00 0.00 67 1011.9
20260505021039 60 205 0.9 3.5 0.00 0.00 0.00 66 1011.8
20260505020259 60 208 0.9 2.6 0.00 0.00 0.00 65 1011.8
20260505015800 61 203 0.9 2.6 0.00 0.00 0.00 64 1011.8
20260505015257 61 182 0.9 4.3 0.00 0.00 0.00 64 1011.8
20260505014739 61 163 0.9 4.3 0.00 0.00 0.00 64 1011.7
20260505014237 61 213 0.9 4.3 0.00 0.00 0.00 64 1011.6
20260505013739 61 204 0.9 4.3 0.00 0.00 0.00 63 1011.5
20260505013211 62 207 0.9 2.6 0.00 0.00 0.00 62 1011.5
20260505012711 62 206 0.0 2.6 0.00 0.00 0.00 62 1011.6
20260505012142 62 73 0.0 1.7 0.00 0.00 0.00 62 1011.6
20260505011637 62 5 0.0 1.7 0.00 0.00 0.00 63 1011.6
20260505011117 62 5 0.0 1.7 0.00 0.00 0.00 62 1011.4
20260505010825 62 198 0.9 5.2 0.00 0.00 0.00 61 1011.4
20260505010036 63 228 0.9 4.3 0.00 0.00 0.00 62 1011.2
20260505005536 63 203 0.9 2.6 0.00 0.00 0.00 60 1011.2
20260505005010 63 199 1.7 6.1 0.00 0.00 0.00 57 1011.0
20260505004510 63 237 1.7 6.1 0.00 0.00 0.00 57 1011.1
20260505004013 64 227 0.9 4.3 0.00 0.00 0.00 56 1010.9
20260505003448 64 161 0.9 7.0 0.00 0.00 0.00 56 1011.1
20260505002948 64 177 0.9 7.0 0.00 0.00 0.00 55 1011.1